"2010-08-16 00:00:00",75181,8.11,119.9,1.023,0.16,21.44,109.0603,22.48,23.39,54.13,0,111.1,13.12,23.31,81.9
"2010-08-16 00:00:30",75182,8.15,119.6,1.59,0.215,21.4,109.0524,22.46,23.37,54.14,0,111.1,13.12,23.29,81.6
"2010-08-16 00:01:00",75183,8.21,118.1,1.462,0.214,21.42,109.0392,22.43,23.36,54.21,0,111.1,13.12,23.26,80.1
"2010-08-16 00:01:30",75184,8.33,119.8,1.115,0.374,21.44,109.0326,22.41,23.34,54.22,0,111.1,13.12,23.24,81.8
"2010-08-16 00:02:00",75185,8.63,120.5,1.033,0.105,21.42,109.0278,22.4,23.34,54.07,0,111.1,13.12,23.23,82.5
"2010-08-16 00:02:30",75186,8.8,118.5,1.519,0.219,21.44,109.03,22.4,23.34,54.17,0,111.1,13.12,23.23,80.5
"2010-08-16 00:03:00",75187,8.53,118,1.666,0.203,21.45,109.0209,22.38,23.32,54.25,0,111.1,13.12,23.21,80.0
"2010-08-16 00:03:30",75188,8.43,116.2,1.6,0.209,21.46,109.0086,22.35,23.31,54.24,0,111.1,13.12,23.18,78.2
"2010-08-16 00:04:00",75189,8.46,115.7,1.404,0.261,21.46,109.0122,22.36,23.29,54.46,0,111.1,13.12,23.19,77.7
"2010-08-16 00:04:30",75190,7.732,119.4,1.983,0.298,21.45,109.0182,22.37,23.28,54.49,0,111.1,13.12,23.20,81.4
"2010-08-16 00:05:00",75191,7.624,118.6,1.463,0.198,21.43,109.0199,22.38,23.27,54.49,0,111.1,13.12,23.21,80.6
"2010-08-16 00:05:30",75192,7.642,118.6,1.063,0.077,21.44,109.0182,22.37,23.26,54.48,0,111.1,13.12,23.20,80.6
"2010-08-16 00:06:00",75193,7.786,117.7,1.392,0.201,21.43,109.0132,22.36,23.25,54.52,0,111.1,13.12,23.19,79.7
"2010-08-16 00:06:30",75194,8.45,115.7,1.778,0.392,21.38,108.9998,22.33,23.24,54.58,0,111.1,13.12,23.16,77.7
"2010-08-16 00:07:00",75195,8.2,117.3,2.726,0.259,21.4,108.9912,22.3,23.22,54.58,0,111.1,13.13,23.13,79.3
"2010-08-16 00:07:30",75196,7.976,118.8,2.515,0.283,21.4,108.9941,22.31,23.21,54.55,0,111.1,13.13,23.14,80.8
"2010-08-16 00:08:00",75197,8.22,116,4.487,0.568,21.44,108.9951,22.31,23.2,54.55,0,111.1,13.13,23.14,78.0
"2010-08-16 00:08:30",75198,8.23,113.9,2.263,0.24,21.41,108.9937,22.31,23.2,54.69,0,111.1,13.13,23.14,75.9
"2010-08-16 00:09:00",75199,8.57,117.7,2.108,0.159,21.36,108.9755,22.26,23.19,54.47,0,111.1,13.13,23.09,79.7
"2010-08-16 00:09:30",75200,8.78,115.2,3.497,0.193,21.37,108.9682,22.24,23.18,54.63,0,111.1,13.13,23.07,77.2
"2010-08-16 00:10:00",75201,8.82,113.4,1.863,0.327,21.36,108.9623,22.23,23.17,54.51,0,111.1,13.13,23.06,75.4
"2010-08-16 00:10:30",75202,9.1,114.5,4.4,0.35,21.38,108.9617,22.23,23.14,54.58,0,111.1,13.13,23.06,76.5
"2010-08-16 00:11:00",75203,8.58,108.7,3.394,0.393,21.41,108.9569,22.22,23.13,54.66,0,111,13.13,23.04,70.7
"2010-08-16 00:11:30",75204,8.88,111.6,3.87,0.324,21.43,108.9474,22.19,23.11,54.68,0,111,13.13,23.02,73.6
"2010-08-16 00:12:00",75205,8.87,113,1.314,0.462,21.35,108.9353,22.16,23.11,54.73,0,111,13.13,22.99,75.0
"2010-08-16 00:12:30",75206,8.86,115.5,1.849,0.391,21.4,108.9288,22.14,23.1,54.76,0,111,13.13,22.97,77.5
"2010-08-16 00:13:00",75207,9.18,116.4,1.54,0.206,21.35,108.9286,22.14,23.09,54.73,0,111,13.13,22.97,78.4
"2010-08-16 00:13:30",75208,9.69,116.8,0.795,0.111,21.32,108.9301,22.15,23.09,54.62,0,111,13.13,22.98,78.8
"2010-08-16 00:14:00",75209,9.35,115.3,1.347,0.2,21.35,108.9273,22.14,23.09,54.68,0,111,13.12,22.97,77.3
"2010-08-16 00:14:30",75210,8.64,112.3,2.67,0.266,21.43,108.922,22.13,23.06,54.87,0,111,13.12,22.96,74.3
"2010-08-16 00:15:00",75211,9.07,114.9,2.511,0.361,21.41,108.9236,22.13,23.06,54.85,0,111,13.13,22.96,76.9
"2010-08-16 00:15:30",75212,9.85,114.5,1.582,0.241,21.32,108.9223,22.13,23.05,54.78,0,111,13.13,22.96,76.5
"2010-08-16 00:16:00",75213,9.48,113.7,0.882,0.15,21.3,108.9224,22.13,23.04,54.75,0,111,13.13,22.96,75.7
"2010-08-16 00:16:30",75214,9.13,116.6,2.1,0.318,21.46,108.9224,22.13,23.03,54.99,0,111,13.13,22.96,78.6
"2010-08-16 00:17:00",75215,8.99,115.6,0.801,0.179,21.29,108.9213,22.12,23.03,54.77,0,111,13.13,22.95,77.6
"2010-08-16 00:17:30",75216,9.22,114.4,1.431,0.198,21.34,108.9063,22.09,23.01,54.75,0,111,13.13,22.91,76.4
"2010-08-16 00:18:00",75217,9.28,116.7,2.72,0.314,21.37,108.9012,22.07,23.01,54.8,0,111,13.14,22.90,78.7
"2010-08-16 00:18:30",75218,9.12,116.6,2.07,0.185,21.29,108.8969,22.06,22.98,54.85,0,111,13.14,22.89,78.6
"2010-08-16 00:19:00",75219,9.25,115.8,1.972,0.12,21.29,108.8976,22.06,22.99,54.84,0,111,13.14,22.89,77.8
"2010-08-16 00:19:30",75220,9.33,117.7,1.608,0.138,21.27,108.8976,22.06,22.97,54.94,0,111,13.14,22.89,79.7
"2010-08-16 00:20:00",75221,9.76,117.3,1.402,0.203,21.26,108.8911,22.05,22.97,54.97,0,111,13.14,22.88,79.3
"2010-08-16 00:20:30",75222,9.59,118.9,1.328,0.233,21.29,108.8715,22,22.95,54.98,0,111,13.14,22.82,80.9
"2010-08-16 00:21:00",75223,9.37,121.8,2.023,0.178,21.32,108.8642,21.98,22.95,54.98,0,111,13.14,22.81,83.8
"2010-08-16 00:21:30",75224,9.6,119.6,2.056,0.362,21.28,108.8642,21.98,22.92,55.01,0,111,13.14,22.81,81.6
"2010-08-16 00:22:00",75225,9.64,116.1,1.719,0.239,21.24,108.8642,21.98,22.93,55.06,0,111,13.14,22.81,78.1
"2010-08-16 00:22:30",75226,9.3,117,1.387,0.154,21.24,108.8566,21.96,22.9,55.05,0,111,13.15,22.79,79.0
"2010-08-16 00:23:00",75227,9.24,120.3,1.442,0.183,21.27,108.8431,21.92,22.9,55.14,0,111,13.15,22.75,82.3
"2010-08-16 00:23:30",75228,9.13,121.1,1.35,0.148,21.24,108.8361,21.91,22.87,55.21,0,111,13.15,22.73,83.1
"2010-08-16 00:24:00",75229,9.42,121.4,1.186,0.173,21.23,108.8305,21.89,22.86,55.25,0,111,13.15,22.72,83.4
"2010-08-16 00:24:30",75230,9.23,119.3,0.676,0.09,21.21,108.8305,21.89,22.86,55.34,0,111,13.15,22.72,81.3
"2010-08-16 00:25:00",75231,9.17,119.1,0.629,0.153,21.19,108.8314,21.89,22.85,55.4,0,111,13.15,22.72,81.1
"2010-08-16 00:25:30",75232,8.97,118.1,0.738,0.109,21.14,108.8306,21.89,22.85,55.44,0,111,13.15,22.72,80.1
"2010-08-16 00:26:00",75233,9.31,118.7,1.311,0.275,21.18,108.8216,21.87,22.82,55.49,0,111,13.15,22.70,80.7
"2010-08-16 00:26:30",75234,9.76,117.2,1.092,0.2,21.14,108.8238,21.87,22.82,55.59,0,111,13.15,22.70,79.2
"2010-08-16 00:27:00",75235,9.54,118.9,2.074,0.39,21.15,108.8212,21.87,22.8,55.63,0,111,13.15,22.70,80.9
"2010-08-16 00:27:30",75236,10.26,117.5,1.986,0.186,21.09,108.824,21.87,22.8,55.8,0,111,13.15,22.70,79.5
"2010-08-16 00:28:00",75237,9.49,112.3,3.767,0.279,21.14,108.8226,21.87,22.77,55.96,0,111,13.15,22.70,74.3
"2010-08-16 00:28:30",75238,10.01,112.3,3.698,0.518,21.14,108.8134,21.85,22.77,55.97,0,111,13.15,22.68,74.3
"2010-08-16 00:29:00",75239,10.42,112.3,1.848,0.275,21.09,108.7974,21.81,22.75,55.88,0,111,13.15,22.63,74.3
"2010-08-16 00:29:30",75240,10.62,113.2,2.114,0.286,21.12,108.7939,21.8,22.74,55.99,0,111,13.15,22.63,75.2
"2010-08-16 00:30:00",75241,10.31,114.4,1.422,0.23,21.08,108.7964,21.8,22.73,56,0,111,13.15,22.63,76.4
"2010-08-16 00:30:30",75242,10.38,112.8,1.999,0.182,21.11,108.7975,21.81,22.71,56.17,0,111,13.15,22.63,74.8
"2010-08-16 00:31:00",75243,9.89,112.6,0.83,0.209,21.09,108.7778,21.76,22.69,56.19,0,111,13.14,22.58,74.6
"2010-08-16 00:31:30",75244,10.29,114,1.816,0.172,21.08,108.7685,21.73,22.66,56.32,0,111,13.14,22.56,76.0
"2010-08-16 00:32:00",75245,10.11,114.3,0.956,0.232,21.06,108.766,21.73,22.67,56.43,0,111,13.15,22.55,76.3
"2010-08-16 00:32:30",75246,10.48,113,1.143,0.157,21.12,108.7646,21.72,22.64,56.54,0,111,13.14,22.55,75.0
"2010-08-16 00:33:00",75247,9.91,112.9,0.598,0.234,21.15,108.7441,21.67,22.62,56.57,0,111,13.15,22.50,74.9
"2010-08-16 00:33:30",75248,9.7,113.6,1.295,0.214,21.07,108.7329,21.64,22.61,56.66,0,111,13.15,22.47,75.6
"2010-08-16 00:34:00",75249,10.31,116.6,1.129,0.256,21.05,108.7323,21.64,22.59,56.74,0,111,13.15,22.47,78.6
"2010-08-16 00:34:30",75250,10.26,114.6,2.768,0.281,21.02,108.7323,21.64,22.58,56.82,0,110.9,13.14,22.47,76.6
"2010-08-16 00:35:00",75251,9.76,117.5,0.945,0.141,21.06,108.732,21.64,22.57,56.8,0,110.9,13.15,22.47,79.5
"2010-08-16 00:35:30",75252,10.16,116.7,1.152,0.186,21.03,108.7295,21.63,22.56,56.71,0,110.9,13.15,22.46,78.7
"2010-08-16 00:36:00",75253,10.52,113.4,1.217,0.327,21,108.7158,21.6,22.54,56.94,0,110.9,13.15,22.42,75.4
"2010-08-16 00:36:30",75254,10.37,114.3,1.087,0.353,20.99,108.7068,21.57,22.54,57.05,0,110.9,13.15,22.40,76.3
"2010-08-16 00:37:00",75255,10.61,115.9,1.34,0.17,21.04,108.7009,21.56,22.53,56.94,0,110.9,13.16,22.39,77.9
"2010-08-16 00:37:30",75256,10.92,115.7,1.227,0.143,21,108.7016,21.56,22.53,57.06,0,110.9,13.16,22.39,77.7
"2010-08-16 00:38:00",75257,11.21,114.4,1.501,0.21,20.98,108.7013,21.56,22.51,57.21,0,110.9,13.16,22.39,76.4
"2010-08-16 00:38:30",75258,11.08,113.7,1.314,0.309,20.98,108.6949,21.54,22.49,57.3,0,110.9,13.16,22.37,75.7
"2010-08-16 00:39:00",75259,11.15,113.1,0.944,0.171,21,108.6807,21.51,22.49,57.39,0,110.9,13.16,22.33,75.1
"2010-08-16 00:39:30",75260,10.59,115.2,1.571,0.315,20.99,108.6787,21.5,22.45,57.42,0,110.9,13.16,22.33,77.2
"2010-08-16 00:40:00",75261,10.56,115.3,1.074,0.09,21.06,108.6734,21.49,22.45,57.39,0,110.9,13.16,22.31,77.3
"2010-08-16 00:40:30",75262,10.48,116.9,1.18,0.129,21.03,108.6804,21.51,22.45,57.35,0,110.9,13.16,22.33,78.9
"2010-08-16 00:41:00",75263,10.41,117.3,0.944,0.114,20.99,108.6838,21.51,22.45,57.33,0,110.9,13.16,22.34,79.3
"2010-08-16 00:41:30",75264,10.43,117.1,1.59,0.146,20.93,108.689,21.53,22.44,57.55,0,110.9,13.16,22.35,79.1
"2010-08-16 00:42:00",75265,10.69,116.1,2.594,0.161,20.88,108.6887,21.53,22.43,57.68,0,110.9,13.16,22.35,78.1
"2010-08-16 00:42:30",75266,10.69,112.9,3.072,0.257,20.9,108.6805,21.51,22.42,57.74,0,110.9,13.16,22.33,74.9
"2010-08-16 00:43:00",75267,11.26,113.8,1.228,0.272,20.83,108.6654,21.47,22.4,57.77,0,110.9,13.16,22.29,75.8
"2010-08-16 00:43:30",75268,10.76,115.4,1.908,0.274,20.84,108.6589,21.45,22.39,57.88,0,110.9,13.16,22.28,77.4
"2010-08-16 00:44:00",75269,10.85,113.5,0.885,0.141,20.76,108.6592,21.45,22.38,57.98,0,110.9,13.16,22.28,75.5
"2010-08-16 00:44:30",75270,10.6,114.2,1.748,0.139,20.82,108.6545,21.44,22.38,58.02,0,110.9,13.16,22.27,76.2
"2010-08-16 00:45:00",75271,10.64,117.4,1.217,0.254,20.78,108.6352,21.39,22.35,58.06,0,110.9,13.16,22.22,79.4
"2010-08-16 00:45:30",75272,10.78,117.2,1.192,0.199,20.82,108.6307,21.38,22.32,58.1,0,110.9,13.16,22.20,79.2
"2010-08-16 00:46:00",75273,10.71,117.3,0.811,0.187,20.84,108.6319,21.38,22.3,58.09,0,110.9,13.17,22.21,79.3
"2010-08-16 00:46:30",75274,10.71,117.9,1.404,0.222,20.82,108.6275,21.37,22.3,58.23,0,110.9,13.17,22.20,79.9
"2010-08-16 00:47:00",75275,10.88,115.7,1.958,0.303,20.85,108.6101,21.33,22.28,58.24,0,110.9,13.16,22.15,77.7
"2010-08-16 00:47:30",75276,11.04,115.2,1.435,0.183,20.79,108.6017,21.3,22.25,58.23,0,110.9,13.16,22.13,77.2
"2010-08-16 00:48:00",75277,11.03,114.8,1.233,0.179,20.9,108.6003,21.3,22.25,58.15,0,110.9,13.16,22.13,76.8
"2010-08-16 00:48:30",75278,11.18,114.7,0.929,0.214,20.9,108.6003,21.3,22.22,58.1,0,110.9,13.16,22.13,76.7
"2010-08-16 00:49:00",75279,11.22,116.1,1.053,0.14,20.92,108.5978,21.29,22.22,58.09,0,110.9,13.16,22.12,78.1
"2010-08-16 00:49:30",75280,11.49,113.6,1.418,0.081,20.92,108.5905,21.27,22.21,58.1,0,110.9,13.16,22.10,75.6
"2010-08-16 00:50:00",75281,11.17,114.5,1.204,0.167,20.88,108.5818,21.25,22.19,58.09,0,110.9,13.16,22.08,76.5
"2010-08-16 00:50:30",75282,11.11,115.7,0.729,0.133,20.92,108.5719,21.23,22.18,58.12,0,110.9,13.16,22.05,77.7
"2010-08-16 00:51:00",75283,10.93,115.7,0.724,0.287,20.87,108.5669,21.21,22.18,58.22,0,110.9,13.16,22.04,77.7
"2010-08-16 00:51:30",75284,11.14,113.2,0.947,0.114,20.8,108.5666,21.21,22.16,58.3,0,110.9,13.16,22.04,75.2
"2010-08-16 00:52:00",75285,11.11,113.3,0.679,0.169,20.82,108.5666,21.21,22.17,58.51,0,110.9,13.17,22.04,75.3
"2010-08-16 00:52:30",75286,10.52,115.7,1.063,0.107,20.82,108.5666,21.21,22.16,58.32,0,110.9,13.17,22.04,77.7
"2010-08-16 00:53:00",75287,11.06,116.4,1.433,0.356,20.8,108.5582,21.19,22.14,58.57,0,110.9,13.17,22.02,78.4
"2010-08-16 00:53:30",75288,10.95,115.9,1.386,0.417,20.76,108.5427,21.15,22.13,58.72,0,110.9,13.17,21.98,77.9
"2010-08-16 00:54:00",75289,10.84,112.8,2.377,0.233,20.82,108.5329,21.13,22.13,58.87,0,110.9,13.17,21.95,74.8
"2010-08-16 00:54:30",75290,11.02,115,1.368,0.268,20.79,108.5329,21.13,22.1,58.77,0,110.9,13.17,21.95,77.0
"2010-08-16 00:55:00",75291,11.01,115.6,1.616,0.119,20.75,108.5326,21.13,22.09,58.82,0,110.9,13.17,21.95,77.6
"2010-08-16 00:55:30",75292,11.01,116.6,1.454,0.155,20.82,108.5273,21.11,22.08,58.86,0,110.9,13.17,21.94,78.6
"2010-08-16 00:56:00",75293,11.3,116.2,1.346,0.14,20.74,108.5034,21.05,22.04,58.98,0,110.9,13.17,21.88,78.2
"2010-08-16 00:56:30",75294,11.07,117.2,0.706,0.131,20.74,108.501,21.05,22.04,58.97,0,110.9,13.17,21.87,79.2
"2010-08-16 00:57:00",75295,10.71,117.9,0.472,0.058,20.69,108.5037,21.05,22.02,58.98,0,110.9,13.17,21.88,79.9
"2010-08-16 00:57:30",75296,10.58,118.8,0.483,0.178,20.77,108.504,21.05,22,59,0,110.9,13.17,21.88,80.8
"2010-08-16 00:58:00",75297,10.38,118.2,0.924,0.176,20.82,108.4889,21.01,21.99,59.01,0,110.9,13.17,21.84,80.2
"2010-08-16 00:58:30",75298,10.23,117.7,1.736,0.356,20.78,108.4839,21,21.99,59.04,0,110.9,13.17,21.83,79.7
"2010-08-16 00:59:00",75299,10.15,119.5,0.391,0.109,20.73,108.4871,21.01,21.97,59,0,110.9,13.18,21.83,81.5
"2010-08-16 00:59:30",75300,9.84,120.2,1.898,0.325,20.75,108.4913,21.02,21.96,59.13,0,110.9,13.17,21.85,82.2
"2010-08-16 01:00:00",75301,10.16,119.5,2.128,0.347,20.73,108.4923,21.02,21.94,59,0,110.9,13.18,21.85,81.5
"2010-08-16 01:00:30",75302,10.59,122.1,1.642,0.127,20.78,108.4929,21.02,21.95,58.83,0,110.9,13.18,21.85,84.1
"2010-08-16 01:01:00",75303,10.18,124.4,1.411,0.163,20.75,108.4929,21.02,21.92,58.78,0,110.9,13.18,21.85,86.4
"2010-08-16 01:01:30",75304,9.68,120.5,3.597,0.316,20.76,108.4909,21.02,21.91,59.28,0,110.9,13.18,21.84,82.5
"2010-08-16 01:02:00",75305,9.67,124.8,1.255,0.073,20.78,108.4803,20.99,21.92,58.96,0,110.9,13.18,21.82,86.8
"2010-08-16 01:02:30",75306,10,124.3,0.887,0.157,20.76,108.4738,20.98,21.89,58.84,0,110.9,13.18,21.80,86.3
"2010-08-16 01:03:00",75307,9.77,122.9,0.743,0.126,20.78,108.4715,20.97,21.91,58.74,0,110.9,13.18,21.79,84.9
"2010-08-16 01:03:30",75308,10.59,122.2,1.293,0.433,20.69,108.47,20.97,21.9,58.87,0,110.9,13.18,21.79,84.2
"2010-08-16 01:04:00",75309,10.22,124.1,2.926,0.314,20.71,108.4679,20.96,21.9,59.01,0,110.9,13.17,21.79,86.1
"2010-08-16 01:04:30",75310,10.34,122.9,0.976,0.191,20.72,108.4683,20.96,21.87,58.7,0,110.9,13.17,21.79,84.9
"2010-08-16 01:05:00",75311,9.66,116.3,6.609,0.476,20.68,108.4683,20.96,21.89,59.22,0,110.9,13.17,21.79,78.3
"2010-08-16 01:05:30",75312,8.9,121,4.231,0.392,20.7,108.4683,20.96,21.87,59.36,0,110.9,13.17,21.79,83.0
"2010-08-16 01:06:00",75313,8.91,121.4,3.235,0.569,20.72,108.4683,20.96,21.86,59.51,0,110.9,13.17,21.79,83.4
"2010-08-16 01:06:30",75314,9.48,120.6,2.255,0.439,20.52,108.4674,20.96,21.87,59.33,0,110.9,13.17,21.78,82.6
"2010-08-16 01:07:00",75315,9.55,121.1,2.596,0.502,20.51,108.4551,20.93,21.87,59.35,0,110.9,13.17,21.75,83.1
"2010-08-16 01:07:30",75316,8.74,123.1,2.564,0.449,20.48,108.441,20.89,21.83,59.54,0,110.9,13.17,21.72,85.1
"2010-08-16 01:08:00",75317,9.78,122.2,1.974,0.529,20.49,108.4348,20.88,21.83,59.39,0,110.9,13.17,21.70,84.2
"2010-08-16 01:08:30",75318,10.45,125.7,1.408,0.182,20.42,108.4345,20.87,21.82,59.04,0,110.9,13.17,21.70,87.7
"2010-08-16 01:09:00",75319,10.58,122.2,4.172,0.43,20.46,108.4345,20.87,21.82,59.37,0,110.9,13.18,21.70,84.2
"2010-08-16 01:09:30",75320,10.88,122.9,2.556,0.389,20.41,108.4345,20.87,21.8,59.35,0,110.9,13.18,21.70,84.9
"2010-08-16 01:10:00",75321,10.6,123.9,3.068,0.267,20.47,108.4345,20.87,21.79,59.36,0,110.9,13.18,21.70,85.9
"2010-08-16 01:10:30",75322,10.63,124.3,2.869,0.554,20.53,108.432,20.87,21.77,59.39,0,110.9,13.19,21.69,86.3
"2010-08-16 01:11:00",75323,10.38,121.6,4.852,0.482,20.54,108.4165,20.83,21.77,59.57,0,110.9,13.19,21.65,83.6
"2010-08-16 01:11:30",75324,10.6,121.3,4.262,0.42,20.59,108.4008,20.79,21.75,59.73,0,110.9,13.19,21.61,83.3
"2010-08-16 01:12:00",75325,10.41,122.7,2.915,0.26,20.64,108.4008,20.79,21.75,59.55,0,110.9,13.19,21.61,84.7
"2010-08-16 01:12:30",75326,10.48,126.2,1.942,0.221,20.59,108.4008,20.79,21.72,59.51,0,110.9,13.19,21.61,88.2
"2010-08-16 01:13:00",75327,9.95,128.1,2.303,0.733,20.6,108.3898,20.76,21.7,59.83,0,110.9,13.19,21.58,90.1
"2010-08-16 01:13:30",75328,10.17,126.8,1.473,0.171,20.61,108.3749,20.72,21.7,59.68,0,110.9,13.19,21.55,88.8
"2010-08-16 01:14:00",75329,9.98,124.1,3.801,0.565,20.58,108.3673,20.7,21.68,60.02,0,110.9,13.19,21.53,86.1
"2010-08-16 01:14:30",75330,8.73,123.7,3.474,0.619,20.52,108.3671,20.7,21.67,60.23,0,110.9,13.19,21.53,85.7
"2010-08-16 01:15:00",75331,9.2,125.3,2.497,0.45,20.52,108.3671,20.7,21.65,60.42,0,110.9,13.19,21.53,87.3
"2010-08-16 01:15:30",75332,9.21,128.9,2.313,0.329,20.52,108.3632,20.69,21.65,60.47,0,110.9,13.19,21.52,90.9
"2010-08-16 01:16:00",75333,9.31,127.2,1.784,0.584,20.52,108.348,20.65,21.64,60.62,0,110.9,13.19,21.48,89.2
"2010-08-16 01:16:30",75334,10.17,122.2,3.115,0.463,20.53,108.3363,20.62,21.61,60.58,0,110.9,13.19,21.45,84.2
"2010-08-16 01:17:00",75335,10.16,125.6,1.73,0.226,20.53,108.3342,20.62,21.59,60.5,0,110.9,13.19,21.44,87.6
"2010-08-16 01:17:30",75336,10.5,124.7,1.069,0.128,20.51,108.3367,20.62,21.58,60.45,0,110.9,13.19,21.45,86.7
"2010-08-16 01:18:00",75337,10.72,125.3,1.02,0.33,20.55,108.3358,20.62,21.57,60.47,0,110.9,13.19,21.45,87.3
"2010-08-16 01:18:30",75338,11.16,125.2,0.797,0.144,20.47,108.3182,20.58,21.55,60.48,0,110.9,13.19,21.40,87.2
"2010-08-16 01:19:00",75339,11.46,125.1,1.257,0.237,20.5,108.3058,20.54,21.56,60.53,0,110.9,13.19,21.37,87.1
"2010-08-16 01:19:30",75340,10.96,124.5,0.673,0.19,20.49,108.3032,20.54,21.54,60.57,0,110.9,13.19,21.36,86.5
"2010-08-16 01:20:00",75341,10.95,124.1,1.466,0.299,20.5,108.3045,20.54,21.51,60.71,0,110.9,13.19,21.36,86.1
"2010-08-16 01:20:30",75342,10.65,122.6,1.275,0.214,20.47,108.3025,20.54,21.5,60.61,0,110.9,13.19,21.36,84.6
"2010-08-16 01:21:00",75343,10.73,122.7,1.857,0.415,20.45,108.2851,20.49,21.49,60.76,0,110.9,13.19,21.31,84.7
"2010-08-16 01:21:30",75344,10.64,123.1,2.427,0.388,20.43,108.276,20.47,21.46,60.77,0,110.9,13.19,21.29,85.1
"2010-08-16 01:22:00",75345,10.82,124.3,1.341,0.224,20.4,108.2802,20.48,21.46,60.68,0,110.9,13.19,21.30,86.3
"2010-08-16 01:22:30",75346,11.07,122.1,0.74,0.133,20.44,108.2814,20.48,21.43,60.52,0,110.9,13.19,21.31,84.1
"2010-08-16 01:23:00",75347,11.08,123.5,1.154,0.106,20.45,108.2714,20.46,21.43,60.61,0,110.9,13.19,21.28,85.5
"2010-08-16 01:23:30",75348,11.13,122.6,2.023,0.232,20.43,108.2538,20.41,21.39,60.79,0,110.9,13.19,21.23,84.6
"2010-08-16 01:24:00",75349,10.94,122.6,1.457,0.317,20.4,108.2559,20.42,21.4,60.74,0,110.9,13.19,21.24,84.6
"2010-08-16 01:24:30",75350,10.76,122.5,1.282,0.193,20.38,108.2544,20.41,21.37,60.82,0,110.9,13.19,21.24,84.5
"2010-08-16 01:25:00",75351,10.88,124.6,1.566,0.374,20.4,108.2487,20.4,21.35,61,0,110.9,13.19,21.22,86.6
"2010-08-16 01:25:30",75352,10.52,125.6,2.01,0.145,20.35,108.2334,20.36,21.32,60.95,0,110.9,13.19,21.18,87.6
"2010-08-16 01:26:00",75353,10.76,127.6,2.304,0.259,20.36,108.2322,20.36,21.3,61.14,0,110.8,13.19,21.18,89.6
"2010-08-16 01:26:30",75354,10.54,125.6,1.488,0.195,20.32,108.2334,20.36,21.28,61.18,0,110.8,13.19,21.18,87.6
"2010-08-16 01:27:00",75355,10.41,125.6,2.238,0.34,20.31,108.2264,20.34,21.28,61.28,0,110.8,13.19,21.16,87.6
"2010-08-16 01:27:30",75356,10.73,126.8,1.87,0.337,20.32,108.2096,20.3,21.27,61.27,0,110.8,13.2,21.12,88.8
"2010-08-16 01:28:00",75357,10.61,125.1,1.589,0.278,20.38,108.2011,20.28,21.26,61.37,0,110.8,13.2,21.10,87.1
"2010-08-16 01:28:30",75358,11.17,126.1,1.655,0.32,20.34,108.2011,20.28,21.24,61.34,0,110.8,13.2,21.10,88.1
"2010-08-16 01:29:00",75359,10.79,125.4,1.653,0.281,20.37,108.2011,20.28,21.21,61.45,0,110.8,13.2,21.10,87.4
"2010-08-16 01:29:30",75360,10.7,127.3,1.243,0.257,20.3,108.1829,20.23,21.2,61.53,0,110.8,13.2,21.05,89.3
"2010-08-16 01:30:00",75361,10.28,127.4,2.887,0.417,20.29,108.173,20.2,21.18,61.55,0,110.8,13.2,21.03,89.4
"2010-08-16 01:30:30",75362,10.7,125.7,2.207,0.34,20.29,108.1674,20.19,21.16,61.59,0,110.8,13.2,21.01,87.7
"2010-08-16 01:31:00",75363,10.93,129.8,1.405,0.346,20.3,108.1674,20.19,21.14,61.41,0,110.8,13.2,21.01,91.8
"2010-08-16 01:31:30",75364,10.94,131.2,1.257,0.531,20.26,108.1674,20.19,21.13,61.38,0,110.8,13.2,21.01,93.2
"2010-08-16 01:32:00",75365,10.83,127.1,1.97,0.25,20.24,108.1601,20.17,21.11,61.44,0,110.8,13.2,20.99,89.1
"2010-08-16 01:32:30",75366,10.41,127.5,1.732,0.254,20.23,108.1395,20.12,21.09,61.65,0,110.8,13.2,20.94,89.5
"2010-08-16 01:33:00",75367,10.94,126.2,2.778,0.38,20.25,108.1337,20.1,21.08,61.56,0,110.8,13.2,20.92,88.2
"2010-08-16 01:33:30",75368,11.16,128.3,1.428,0.27,20.23,108.1337,20.1,21.06,61.54,0,110.8,13.2,20.92,90.3
"2010-08-16 01:34:00",75369,10.81,126.6,1.329,0.297,20.21,108.1334,20.1,21.05,61.65,0,110.8,13.2,20.92,88.6
"2010-08-16 01:34:30",75370,10.33,125,2.436,0.326,20.2,108.1261,20.08,21.04,61.95,0,110.8,13.2,20.91,87.0
"2010-08-16 01:35:00",75371,10.68,125.9,1.615,0.249,20.22,108.1156,20.06,21.02,62.07,0,110.8,13.2,20.88,87.9
"2010-08-16 01:35:30",75372,10.17,125.4,1.775,0.347,20.2,108.1002,20.02,21.01,62.09,0,110.8,13.2,20.84,87.4
"2010-08-16 01:36:00",75373,10.83,124,2.521,0.376,20.17,108.0999,20.02,20.99,62.11,0,110.8,13.2,20.84,86.0
"2010-08-16 01:36:30",75374,10.53,124.9,1.344,0.196,20.15,108.0999,20.02,20.99,62.1,0,110.8,13.2,20.84,86.9
"2010-08-16 01:37:00",75375,10.95,125.6,0.882,0.275,20.15,108.092,20,20.96,61.96,0,110.8,13.2,20.82,87.6
"2010-08-16 01:37:30",75376,10.94,125.1,1.237,0.338,20.16,108.0715,19.94,20.95,62.08,0,110.8,13.2,20.76,87.1
"2010-08-16 01:38:00",75377,11.56,124.8,2.552,0.246,20.12,108.0661,19.93,20.94,62.32,0,110.8,13.2,20.75,86.8
"2010-08-16 01:38:30",75378,11.22,126.9,1.049,0.416,20.12,108.0661,19.93,20.93,62.45,0,110.8,13.2,20.75,88.9
"2010-08-16 01:39:00",75379,10.86,126.8,1.552,0.436,20.09,108.0622,19.92,20.91,62.71,0,110.8,13.2,20.74,88.8
"2010-08-16 01:39:30",75380,11.52,127,2.921,0.323,20.1,108.0476,19.88,20.88,62.9,0,110.8,13.2,20.70,89.0
"2010-08-16 01:40:00",75381,11.83,129,0.976,0.132,20.19,108.0324,19.84,20.87,63.04,0,110.8,13.2,20.66,91.0
"2010-08-16 01:40:30",75382,11.74,129.2,0.784,0.139,20.07,108.0324,19.84,20.85,63.27,0,110.8,13.2,20.66,91.2
"2010-08-16 01:41:00",75383,11.72,128.3,0.961,0.126,20.19,108.0302,19.84,20.84,63.5,0,110.8,13.2,20.66,90.3
"2010-08-16 01:41:30",75384,11.61,129.5,0.676,0.116,20.07,108.0072,19.78,20.81,63.64,0,110.8,13.2,20.60,91.5
"2010-08-16 01:42:00",75385,11.69,130.9,0.547,0.096,20.19,108.0017,19.76,20.79,63.79,0,110.8,13.2,20.58,92.9
"2010-08-16 01:42:30",75386,11.59,131.6,0.751,0.084,20.09,108.0038,19.77,20.77,63.89,0,110.8,13.2,20.59,93.6
"2010-08-16 01:43:00",75387,11.53,131,1.153,0.217,20.04,108.0014,19.76,20.76,64,0,110.8,13.2,20.58,93.0
"2010-08-16 01:43:30",75388,11.89,132.1,1.024,0.2,20.14,107.9804,19.71,20.74,64.08,0,110.8,13.2,20.53,94.1
"2010-08-16 01:44:00",75389,12.19,133.3,0.484,0.187,20.23,107.9859,19.72,20.71,63.98,0,110.8,13.2,20.54,95.3
"2010-08-16 01:44:30",75390,11.78,133.1,0.591,0.109,20.09,107.9868,19.73,20.68,64.05,0,110.8,13.21,20.55,95.1
"2010-08-16 01:45:00",75391,11.66,132.7,0.684,0.093,20.22,107.973,19.69,20.65,64.1,0,110.8,13.21,20.51,94.7
"2010-08-16 01:45:30",75392,11.74,134.8,1.184,0.185,20.05,107.9621,19.66,20.64,64.21,0,110.8,13.21,20.48,96.8
"2010-08-16 01:46:00",75393,11.44,135.5,1.098,0.183,20.05,107.9582,19.65,20.63,64.53,0,110.8,13.21,20.47,97.5
"2010-08-16 01:46:30",75394,11.35,135.8,0.719,0.114,20.02,107.9582,19.65,20.61,64.72,0,110.8,13.21,20.47,97.8
"2010-08-16 01:47:00",75395,11.66,136.9,1.431,0.183,20.12,107.9531,19.64,20.58,64.76,0,110.8,13.21,20.46,98.9
"2010-08-16 01:47:30",75396,11.67,137.6,0.811,0.118,20.12,107.9399,19.61,20.58,64.64,0,110.8,13.21,20.43,99.6
"2010-08-16 01:48:00",75397,11.7,136.2,0.899,0.216,20.05,107.9303,19.58,20.56,64.7,0,110.8,13.21,20.40,98.2
"2010-08-16 01:48:30",75398,11.55,134.8,0.845,0.183,20.05,107.9281,19.58,20.53,64.77,0,110.8,13.22,20.40,96.8
"2010-08-16 01:49:00",75399,11.64,132.4,0.979,0.294,20.04,107.932,19.59,20.53,64.89,0,110.8,13.22,20.41,94.4
"2010-08-16 01:49:30",75400,11.64,133.3,1.324,0.171,20.14,107.932,19.59,20.5,65.05,0,110.8,13.22,20.41,95.3
"2010-08-16 01:50:00",75401,11.35,136.1,1.056,0.153,20,107.9301,19.58,20.5,65.45,0,110.8,13.22,20.40,98.1
"2010-08-16 01:50:30",75402,11.11,135.1,0.659,0.139,19.97,107.9093,19.53,20.48,65.45,0,110.8,13.22,20.35,97.1